Theta_e
315 315 315 315 314 314 313 313 314 313 312 312 311 311 311 312 312 312 313 313 313 313 313 312 312 313 308 301 301 311 333 331 321 310 308 306 302 296 292 293 293 291 295 298 301 302 302
315 315 315 314 314 313 313 313 313 313 312 312 311 311 311 311 312 312 312 312 312 311 312 312 313 314 304 294 306 317 320 318 311 306 303 304 301 299 296 294 292 296 296 297 298 298 298
315 315 314 314 314 314 313 313 313 312 312 312 312 311 311 312 312 312 312 312 311 312 313 313 313 311 303 298 311 316 313 308 308 308 305 307 303 299 296 294 296 297 292 295 295 295 297
315 315 314 314 314 313 312 313 313 312 311 311 312 311 311 311 312 312 312 313 313 313 314 313 313 308 296 310 309 307 310 309 309 309 307 307 304 298 294 296 296 292 291 285 292 296 298
314 314 313 313 314 313 313 313 313 312 311 311 312 311 311 311 311 312 313 313 313 314 317 314 306 302 297 316 311 312 309 308 309 309 307 309 301 296 296 289 286 287 283 286 290 295 295
313 313 313 313 313 313 313 313 313 312 311 311 311 311 311 311 312 312 312 313 312 312 314 313 310 299 305 307 305 308 307 310 306 304 302 300 295 291 288 286 280 284 285 288 288 295 294
312 312 312 311 312 312 313 313 313 312 312 311 310 311 310 311 311 312 308 305 302 303 305 301 304 303 307 312 308 304 307 307 305 299 291 294 288 285 289 291 292 291 289 288 292 295 293
312 312 311 311 310 311 312 312 312 312 312 311 310 309 310 310 310 310 304 302 307 301 295 307 308 306 311 312 305 305 309 300 298 292 294 290 286 293 295 295 294 292 290 289 293 296 293
311 311 311 310 310 311 311 311 312 312 312 311 310 310 310 310 310 306 303 308 314 308 296 301 306 306 307 309 304 302 305 301 296 292 292 288 292 298 296 293 292 292 289 289 289 294 293
311 311 311 311 310 310 311 311 311 312 312 311 310 309 309 309 304 304 304 311 308 307 290 297 302 304 305 303 299 307 307 301 296 293 292 290 295 294 293 293 294 287 293 293 292 288 283
311 311 310 310 310 310 310 311 311 311 311 310 309 309 309 307 298 300 308 310 310 305 283 303 300 306 303 299 301 302 307 300 294 294 293 291 292 292 291 293 296 291 295 293 293 287 283
310 310 310 310 310 310 309 310 311 311 310 309 309 309 308 305 301 305 309 308 304 292 285 300 300 298 296 298 300 302 301 302 301 294 293 292 296 295 294 299 298 298 294 291 288 284 279
311 310 310 309 310 309 309 309 310 310 309 309 308 307 305 305 299 305 305 303 289 285 303 298 299 299 295 294 297 297 296 293 290 285 286 294 293 298 301 295 297 295 287 279 278 276 279
311 310 309 309 309 309 308 310 310 309 309 308 306 306 305 305 301 304 304 296 284 294 297 302 298 298 294 295 295 296 294 291 295 295 289 287 284 296 300 297 294 293 292 283 275 275 280
311 310 309 309 309 309 308 309 309 308 308 306 305 301 304 307 305 307 298 287 288 296 300 296 296 292 292 294 294 294 291 292 296 297 290 289 288 299 299 300 298 293 287 294 286 287 280
311 310 309 309 308 309 308 310 309 309 307 305 298 300 305 312 310 303 293 290 294 300 300 299 290 294 288 290 291 290 290 297 296 298 296 292 285 294 296 299 299 295 295 284 285 278 276
311 310 310 309 308 308 308 310 309 308 306 304 298 298 310 315 309 298 288 291 297 302 299 296 292 291 291 290 291 289 291 295 297 296 296 291 287 288 292 290 289 290 289 287 286 285 279
311 310 310 309 308 308 308 309 309 308 305 300 294 290 308 309 296 294 290 297 297 297 299 297 296 294 292 292 290 289 290 293 299 297 290 291 287 282 287 293 296 294 291 288 281 279 285
311 311 310 309 308 308 308 309 309 307 306 296 294 293 307 306 291 290 294 296 298 296 296 296 295 296 294 289 286 292 292 297 299 296 292 292 283 277 280 286 292 288 291 292 288 287 281
311 311 310 310 308 308 308 309 308 307 306 297 291 292 298 299 298 292 292 294 294 301 297 295 294 294 291 289 290 287 290 295 298 297 302 296 285 282 277 282 284 284 288 290 287 280 282
311 311 311 310 308 307 308 309 308 306 306 300 294 293 292 288 291 292 294 294 292 291 295 294 292 293 290 285 287 286 290 291 294 301 296 289 283 285 287 289 289 288 287 288 287 286 282
311 311 311 310 308 307 306 308 307 306 305 302 295 289 292 289 293 294 295 293 292 293 291 291 289 292 290 285 287 285 288 287 287 289 286 289 280 286 285 289 288 286 288 289 290 290 288
311 311 311 310 309 306 305 306 307 305 303 295 296 297 292 290 291 292 293 293 293 294 293 293 292 290 289 291 293 291 291 290 290 286 285 284 282 280 279 286 286 281 289 290 291 293 291
311 311 311 310 309 307 304 305 307 305 302 298 296 295 291 286 290 291 293 294 292 293 290 294 295 290 295 297 295 292 291 293 290 290 290 285 283 281 279 282 275 288 296 295 292 293 292
311 311 311 310 309 307 304 304 305 305 303 298 297 295 292 286 290 289 292 292 293 293 292 296 297 297 296 294 289 286 287 288 293 296 292 289 285 281 275 274 283 290 292 291 289 288 292
311 311 311 310 309 307 305 304 304 306 304 299 298 299 296 288 288 293 291 292 290 288 290 296 300 299 296 291 288 281 279 288 286 290 295 293 289 281 281 275 274 288 294 295 293 282 292
310 310 310 310 310 307 305 305 305 305 305 299 298 299 295 288 291 293 290 291 294 290 288 293 294 295 295 286 281 280 284 292 281 284 283 283 281 279 280 280 282 293 294 294 280 281 291
309 309 310 310 310 307 306 305 305 305 306 300 298 300 296 290 292 294 296 293 293 291 288 292 292 294 289 284 285 285 283 285 282 288 285 285 285 275 279 281 276 294 292 284 287 291 293
308 309 309 309 309 308 306 306 305 305 306 302 294 301 301 293 292 297 297 299 298 297 291 293 292 293 293 286 285 287 286 283 283 278 292 282 285 283 283 281 291 293 291 293 293 292 294
Wind_Speed
18 18 20 19 20 20 19 19 18 19 20 20 20 20 19 18 18 18 17 16 15 14 13 12 10 8 4 1 11 5 7 11 6 5 6 4 2 2 4 5 3 5 7 12 16 17 19
17 18 19 20 20 20 20 20 20 20 19 19 21 21 20 19 18 17 16 15 14 13 12 10 9 7 2 4 7 7 8 6 6 5 4 6 6 8 6 5 3 5 5 9 10 12 9
17 17 18 19 19 19 21 21 21 21 21 20 20 21 20 19 18 17 15 14 13 13 12 9 6 4 3 15 2 5 8 7 6 6 4 4 6 4 4 7 1 6 7 9 5 5 6
18 17 18 18 19 21 22 22 23 22 22 22 21 20 21 20 18 16 15 14 13 13 11 6 4 2 9 6 3 4 6 8 8 7 8 10 2 1 2 3 9 5 4 4 6 3 6
18 19 19 18 18 20 21 22 23 23 22 23 21 20 21 20 18 16 17 16 15 11 7 4 4 2 11 11 5 11 11 12 12 8 7 7 2 2 5 3 6 6 5 8 10 6 4
17 18 20 20 19 19 20 21 21 22 23 23 21 20 20 19 18 16 17 17 4 4 3 6 6 3 7 4 5 5 7 11 4 3 2 1 4 1 4 5 5 6 5 7 7 13 4
16 17 18 20 21 20 20 22 22 23 23 23 23 21 20 19 18 12 8 4 3 1 3 9 7 7 12 9 3 5 6 2 2 4 1 6 2 6 13 11 12 9 12 15 16 10 5
17 17 18 19 20 20 20 22 22 24 24 24 24 23 22 21 18 13 1 1 7 2 10 16 18 15 17 7 7 6 6 5 3 5 3 5 8 15 10 13 12 14 17 18 14 9 4
15 17 17 18 19 18 20 22 22 23 24 23 22 23 23 23 24 3 4 7 8 5 4 10 9 8 9 7 11 8 9 6 7 6 7 8 12 11 12 16 17 18 12 6 7 6 5
15 16 16 16 17 18 19 21 23 23 24 25 23 22 21 25 2 3 5 6 7 5 4 8 6 7 5 8 5 11 12 9 6 13 9 8 11 10 10 7 9 6 7 6 7 3 6
15 16 16 17 18 19 19 20 23 23 23 24 25 22 20 8 5 2 7 9 10 5 3 4 4 4 7 8 3 3 8 5 12 11 7 14 7 11 12 10 11 9 9 4 1 2 1
14 16 17 17 18 20 21 22 23 23 24 25 25 20 17 1 3 9 8 11 4 5 4 3 4 4 5 5 5 4 7 5 6 6 6 10 4 5 3 13 7 8 6 0 2 3 3
14 15 16 18 19 20 22 24 26 25 25 29 29 26 6 2 6 2 4 4 5 3 4 9 4 2 6 5 5 5 6 8 9 3 4 8 7 9 10 7 4 9 6 5 7 3 12
13 14 15 17 18 19 21 24 26 26 27 31 30 24 4 6 4 3 4 5 2 4 4 11 6 7 3 8 7 9 7 2 2 3 3 2 7 6 5 1 6 4 8 4 4 3 10
13 13 15 16 17 17 19 22 25 27 27 28 26 4 3 5 6 2 5 3 6 2 9 5 3 3 4 7 1 6 5 3 4 2 4 6 8 7 11 12 7 0 6 13 6 13 5
13 13 14 15 15 16 19 21 24 27 29 27 7 4 5 3 7 5 5 4 5 3 13 6 1 1 3 6 5 5 3 2 3 3 2 4 5 7 4 6 6 4 12 2 2 6 5
12 12 12 13 14 15 17 20 22 25 29 24 4 5 4 8 5 5 3 6 5 10 9 5 4 3 3 3 3 3 4 1 4 3 6 3 3 5 5 3 4 1 2 4 5 2 3
12 12 12 13 13 13 15 17 20 23 25 7 3 4 2 5 1 1 2 5 8 9 11 5 2 2 2 0 2 3 4 3 3 2 3 1 4 3 8 8 5 4 4 1 1 3 2
11 11 11 11 11 12 14 15 18 21 15 5 6 4 6 4 2 4 6 8 4 8 8 5 3 4 3 3 4 3 4 2 4 4 7 5 1 4 9 6 1 2 6 6 1 3 6
12 10 10 10 9 9 11 13 16 20 17 0 3 4 5 4 1 3 6 7 11 11 6 5 3 2 4 3 3 4 4 3 2 4 7 6 3 6 5 6 5 6 6 10 7 4 4
12 11 10 9 8 7 8 11 13 18 21 1 0 3 2 4 5 10 8 6 11 11 4 3 3 4 1 2 3 3 3 5 7 4 4 5 5 4 6 9 12 13 14 13 10 8 7
13 12 11 10 8 7 7 9 11 16 22 2 3 4 5 4 5 6 3 6 10 15 9 4 4 3 2 1 3 3 0 1 4 1 2 0 4 2 4 12 11 13 14 12 14 10 14
13 13 12 11 9 6 5 7 7 12 10 2 3 3 2 5 5 1 2 5 14 16 10 10 7 5 4 4 5 7 8 6 7 4 2 2 4 1 5 5 13 5 8 7 6 7 2
14 13 13 12 11 9 5 5 3 5 5 1 2 2 2 5 4 4 8 13 13 17 11 13 12 5 3 4 5 2 3 4 7 8 7 4 3 2 5 6 3 5 4 7 8 6 5
13 13 13 13 12 11 7 5 5 3 1 2 1 1 2 4 5 10 9 6 11 14 6 5 9 0 2 4 4 5 4 5 4 5 1 6 5 1 1 2 8 3 6 7 10 14 3
12 13 13 13 13 13 10 7 6 4 6 2 2 2 2 2 5 5 5 5 5 8 5 5 10 5 4 2 3 1 2 3 3 3 4 3 4 5 1 2 4 3 9 9 10 7 8
11 11 12 13 14 14 12 9 8 8 10 3 2 1 1 3 6 3 3 3 4 6 4 4 8 7 4 2 1 1 2 2 1 1 2 3 3 4 3 4 6 8 9 11 1 7 14
11 11 12 12 12 15 14 11 9 9 11 5 2 2 2 3 7 8 6 5 5 4 2 5 6 4 4 5 3 3 2 2 3 3 2 2 2 3 2 2 7 8 3 3 4 10 14
11 10 11 11 12 16 14 13 10 8 12 8 2 2 1 4 5 7 15 17 18 19 3 4 3 2 0 3 2 3 2 3 1 3 4 2 2 2 4 7 2 3 8 4 9 16 19
Wind_Direction
6 3 2 359 358 354 351 347 343 342 341 338 337 333 329 325 320 317 313 311 308 308 308 310 311 320 358 236 251 250 149 154 158 187 210 174 251 192 237 247 266 189 240 242 240 248 250
0 359 1 358 356 355 352 349 345 344 342 340 339 337 332 327 323 319 315 312 309 306 304 303 302 309 177 267 246 175 154 157 216 204 194 156 231 226 242 230 173 262 267 258 254 250 255
358 357 357 357 353 351 352 349 350 346 344 340 338 336 334 329 325 322 318 312 306 304 301 295 285 268 255 237 357 111 171 204 199 210 247 226 215 45 327 332 33 295 307 313 255 235 232
353 355 355 352 351 351 353 349 348 347 345 342 339 336 336 334 330 324 315 307 301 299 299 272 233 245 251 238 246 260 210 286 270 224 214 259 289 194 83 301 346 340 336 314 288 299 266
353 350 350 351 349 348 347 346 346 345 344 343 340 337 336 334 332 323 313 299 292 288 303 171 166 173 268 303 190 221 183 219 237 250 240 252 119 163 355 27 358 352 259 289 303 243 257
352 351 349 348 348 346 342 343 343 342 343 342 340 338 337 334 333 329 313 295 254 319 179 188 264 323 271 267 234 207 183 202 234 285 62 337 42 183 2 85 230 251 277 268 260 282 241
351 350 350 347 345 344 339 340 341 340 339 340 340 337 336 332 330 328 344 13 22 55 238 205 213 237 284 301 99 204 199 208 241 66 335 296 112 226 236 219 231 241 256 264 274 274 243
343 345 345 345 344 338 338 340 337 337 335 335 336 335 334 329 324 316 259 197 233 171 293 225 237 224 255 264 295 211 156 160 168 223 261 346 262 253 240 255 245 248 251 263 273 251 271
338 340 341 340 336 334 337 339 336 334 332 331 331 330 332 328 318 136 197 233 264 26 292 297 214 220 226 182 240 219 162 190 200 216 233 211 249 276 263 261 262 254 241 234 245 280 287
332 335 334 332 332 332 335 336 335 331 329 327 326 327 330 327 2 342 254 272 317 165 29 278 195 235 180 175 263 212 191 167 199 220 234 240 253 258 295 289 286 237 236 256 283 356 257
329 330 331 331 331 330 329 332 331 329 327 323 319 322 319 318 293 282 246 324 327 60 350 218 180 164 156 157 204 253 189 177 219 220 142 242 267 287 294 277 291 266 264 238 157 234 345
324 327 327 328 329 331 328 334 327 330 328 324 317 318 323 55 201 242 312 307 52 53 266 238 130 192 134 239 242 256 191 189 219 216 216 241 235 197 263 319 298 304 268 343 78 119 286
318 322 324 326 328 332 333 333 326 333 331 323 324 317 297 256 226 41 328 32 51 156 275 349 3 93 218 246 242 242 225 215 212 214 350 5 321 317 311 317 350 44 40 299 273 334 254
312 317 322 324 330 334 335 330 330 333 332 326 319 317 193 214 255 325 26 56 184 254 335 345 14 338 340 38 334 352 10 240 266 110 97 30 327 1 30 10 305 289 162 154 262 222 277
308 314 317 324 327 329 332 333 331 331 331 325 316 330 268 254 189 100 66 87 218 261 339 332 355 305 352 358 322 15 339 19 91 63 189 177 243 266 276 265 147 242 224 214 211 237 277
303 310 314 321 324 329 333 332 335 336 333 326 323 325 268 214 130 73 77 243 270 314 322 284 148 329 322 313 335 1 313 79 99 133 135 197 281 224 295 306 205 103 312 23 97 187 214
296 303 310 315 322 331 333 335 338 339 332 322 359 344 279 114 82 54 175 235 270 314 337 279 226 249 327 23 342 352 294 329 170 176 97 140 145 283 321 243 174 2 322 339 116 166 200
288 298 303 311 321 328 333 336 340 339 335 36 8 331 301 8 31 288 248 298 316 327 341 300 98 147 115 171 288 259 236 261 166 142 121 104 149 262 249 271 194 120 133 353 195 212 248
279 286 295 304 316 325 331 338 339 336 359 313 330 275 305 106 321 342 315 309 278 330 324 302 7 39 45 27 354 319 354 336 145 148 162 184 216 329 331 3 5 160 191 173 337 117 212
268 268 284 294 304 318 329 337 340 335 340 93 340 325 334 29 46 39 336 303 334 320 318 16 11 51 18 355 164 279 314 347 89 184 146 129 156 180 214 244 232 284 237 203 176 165 214
267 271 278 281 289 309 326 337 342 335 332 29 116 277 16 330 343 333 342 285 338 340 356 30 322 14 71 285 288 272 342 351 1 131 147 133 198 225 255 272 281 275 269 264 204 214 191
266 265 263 266 270 285 320 336 346 345 334 15 329 9 340 288 282 350 348 295 329 334 324 321 359 309 67 251 241 252 332 228 221 329 46 333 259 249 264 270 280 300 295 274 262 257 244
268 262 256 254 251 249 286 326 349 2 353 4 331 345 51 287 299 353 261 309 318 314 300 319 315 306 287 239 227 225 208 204 211 203 246 205 170 30 274 306 306 311 334 5 20 54 317
269 265 259 250 239 225 241 300 328 24 46 142 289 305 296 272 273 246 290 299 308 309 294 283 288 240 221 281 281 273 214 251 216 247 173 224 117 126 274 342 278 193 320 337 343 45 47
271 267 260 252 235 224 219 255 302 203 129 131 279 307 276 272 296 290 268 314 310 306 291 343 9 74 228 37 6 354 351 17 340 25 34 157 111 327 140 224 283 128 9 353 338 312 34
273 271 264 251 229 223 214 230 277 264 198 179 215 219 261 296 249 313 317 297 283 304 312 320 339 302 42 60 52 51 256 116 341 279 45 68 96 128 25 230 264 10 342 315 299 270 358
272 270 268 260 230 218 218 219 251 278 196 193 212 204 130 249 269 359 231 294 286 281 274 308 330 335 37 33 39 153 290 119 2 239 275 345 7 184 235 252 276 11 333 311 48 296 326
275 273 269 261 235 214 216 219 245 266 192 177 196 176 210 245 276 265 273 240 261 278 301 321 340 347 22 42 37 306 56 313 31 343 198 136 272 259 4 290 282 6 359 357 274 310 306
273 272 268 262 234 211 214 217 239 253 196 186 222 178 188 231 273 307 271 252 239 242 12 303 254 338 100 75 5 330 347 4 211 292 17 5 129 248 187 233 279 342 334 278 314 313 307